Location: Bottens
(46.6171°N, 6.6605°E)
Time: 12:53:16
(UTC+00:00)

Cosmos 1825 - Pass Details

Date: 25 October 2021
Orbit: 501 x 504 km, 82.5° (Epoch: 29 November)

Event Time Altitude Azimuth Distance (km) Brightness Sun altitude
Rises 17:36:49 0° 5° (N) 2,609 5.7 -12.3°
Reaches altitude 10° 17:39:27 10° 24° (NNE) 1,719 4.6 -12.7°
Enters shadow 17:41:27 18° 55° (NE) 1,302 3.7 -13.0°
